GW7381 Weather Reports


time (UTC)temp
C
wind
direction
speed
KPH
gust
KPH
rain 1hr
cm
rain 24hr
cm
rain mn
cm
humidity
%
barometer
mb
20260906221543 34 318 3.2 9.7 0.00 0.00 0.00 26 1016.3
20260906221025 35 39 3.2 9.7 0.00 0.00 0.00 27 1016.3
20260906220524 35 296 1.6 8.0 0.00 0.00 0.00 26 1016.4
20260906220042 35 292 1.6 8.0 0.00 0.00 0.00 25 1016.4
20260906215525 35 217 1.6 9.7 0.00 0.00 0.00 26 1016.5
20260906215025 35 259 3.2 9.7 0.00 0.00 0.00 26 1016.6
20260906214548 35 290 1.6 14.5 0.00 0.00 0.00 26 1016.6
20260906214024 34 66 1.6 14.5 0.00 0.00 0.00 25 1016.7
20260906213521 34 34 4.8 14.5 0.00 0.00 0.00 26 1016.8
20260906213043 34 314 3.2 9.7 0.00 0.00 0.00 27 1016.8
20260906212520 34 277 1.6 8.0 0.00 0.00 0.00 27 1016.9
20260906212019 34 352 1.6 11.3 0.00 0.00 0.00 26 1017.0
20260906211541 33 257 3.2 11.3 0.00 0.00 0.00 27 1017.2
20260906211020 33 260 3.2 11.3 0.00 0.00 0.00 27 1017.3
20260906210523 33 183 3.2 11.3 0.00 0.00 0.00 28 1017.6
20260906210041 33 350 3.2 8.0 0.00 0.00 0.00 26 1017.6
20260906205525 33 230 1.6 11.3 0.00 0.00 0.00 28 1017.6
20260906205022 33 256 1.6 11.3 0.00 0.00 0.00 28 1017.7
20260906204543 33 49 1.6 14.5 0.00 0.00 0.00 27 1017.8
20260906204020 32 5 3.2 14.5 0.00 0.00 0.00 28 1018.1
20260906203521 32 26 3.2 16.1 0.00 0.00 0.00 28 1018.1
20260906203044 32 46 4.8 16.1 0.00 0.00 0.00 28 1018.0
20260906202519 32 0 1.6 16.1 0.00 0.00 0.00 30 1018.1
20260906202021 32 308 4.8 16.1 0.00 0.00 0.00 29 1018.2
20260906201541 32 40 1.6 9.7 0.00 0.00 0.00 30 1018.2
20260906201020 32 101 3.2 12.9 0.00 0.00 0.00 31 1018.3
20260906200524 32 340 6.4 14.5 0.00 0.00 0.00 30 1018.4
20260906200041 32 0 1.6 14.5 0.00 0.00 0.00 30 1018.4
20260906195523 32 360 1.6 12.9 0.00 0.00 0.00 30 1018.5
20260906195024 32 34 4.8 12.9 0.00 0.00 0.00 30 1018.5
20260906194546 32 107 1.6 9.7 0.00 0.00 0.00 31 1018.5
20260906194023 31 84 3.2 12.9 0.00 0.00 0.00 31 1018.6
20260906193523 31 59 1.6 12.9 0.00 0.00 0.00 32 1018.7
20260906193042 31 5 4.8 14.5 0.00 0.00 0.00 31 1018.9
20260906192521 31 327 4.8 14.5 0.00 0.00 0.00 30 1018.9
20260906192022 31 0 1.6 8.0 0.00 0.00 0.00 30 1019.0
20260906191544 31 337 1.6 12.9 0.00 0.00 0.00 30 1019.1
20260906191020 30 61 3.2 12.9 0.00 0.00 0.00 31 1019.2
20260906190523 31 344 1.6 12.9 0.00 0.00 0.00 30 1019.3
20260906190108 30 0 1.6 12.9 0.00 0.00 0.00 29 1019.4
20260906185524 31 210 3.2 11.3 0.00 0.00 0.00 30 1019.6
20260906185023 30 76 1.6 11.3 0.00 0.00 0.00 31 1019.7
20260906184552 30 320 1.6 11.3 0.00 0.00 0.00 32 1019.7
20260906184024 30 297 3.2 11.3 0.00 0.00 0.00 33 1019.8
20260906183526 30 261 1.6 8.0 0.00 0.00 0.00 35 1019.8
20260906183048 29 211 1.6 8.0 0.00 0.00 0.00 36 1020.0
20260906182521 29 296 1.6 9.7 0.00 0.00 0.00 34 1020.0
20260906182024 29 346 4.8 9.7 0.00 0.00 0.00 34 1020.2
20260906181541 29 38 1.6 8.0 0.00 0.00 0.00 35 1020.3
20260906181024 29 314 3.2 8.0 0.00 0.00 0.00 36 1020.3
20260906180524 28 0 0.0 6.4 0.00 0.00 0.00 36 1020.4
20260906180048 28 272 1.6 9.7 0.00 0.00 0.00 37 1020.5
20260906175524 28 283 3.2 9.7 0.00 0.00 0.00 37 1020.6
20260906175023 28 283 1.6 9.7 0.00 0.00 0.00 39 1020.6
20260906174548 28 322 1.6 6.4 0.00 0.00 0.00 38 1020.7
20260906174022 28 90 3.2 6.4 0.00 0.00 0.00 38 1020.9
20260906173523 28 5 3.2 8.0 0.00 0.00 0.00 38 1021.0
20260906173043 28 103 3.2 8.0 0.00 0.00 0.00 39 1021.1
20260906172518 27 81 1.6 8.0 0.00 0.00 0.00 41 1021.2
20260906172022 27 36 0.0 8.0 0.00 0.00 0.00 42 1021.3
20260906171541 27 297 3.2 8.0 0.00 0.00 0.00 43 1021.4
20260906171024 27 261 1.6 6.4 0.00 0.00 0.00 41 1021.5
20260906170524 27 5 0.0 4.8 0.00 0.00 0.00 44 1021.7
20260906170052 26 0 0.0 3.2 0.00 0.00 0.00 44 1021.8
20260906165523 26 0 0.0 4.8 0.00 0.00 0.00 45 1021.9
20260906165023 26 0 0.0 4.8 0.00 0.00 0.00 45 1021.9
20260906164549 26 0 0.0 4.8 0.00 0.00 0.00 46 1021.9
20260906164023 25 238 1.6 4.8 0.00 0.00 0.00 48 1021.9
20260906163520 25 227 1.6 4.8 0.00 0.00 0.00 48 1021.9
20260906163045 25 164 0.0 6.4 0.00 0.00 0.00 49 1021.8
20260906162521 25 178 1.6 6.4 0.00 0.00 0.00 49 1021.9
20260906162019 25 208 3.2 6.4 0.00 0.00 0.00 50 1021.8
20260906161541 25 215 1.6 6.4 0.00 0.00 0.00 51 1021.7
20260906161023 24 121 0.0 4.8 0.00 0.00 0.00 52 1021.7
20260906160520 24 0 1.6 4.8 0.00 0.00 0.00 53 1021.7
20260906160054 23 0 0.0 4.8 0.00 0.00 0.00 53 1021.8
20260906155524 23 60 1.6 4.8 0.00 0.00 0.00 54 1021.7
20260906155024 23 239 1.6 4.8 0.00 0.00 0.00 56 1021.7
20260906154555 23 246 1.6 6.4 0.00 0.00 0.00 58 1021.6
20260906154024 22 0 1.6 8.0 0.00 0.00 0.00 59 1021.7
20260906153524 22 156 1.6 8.0 0.00 0.00 0.00 59 1021.8
20260906153042 22 205 1.6 6.4 0.00 0.00 0.00 59 1021.8
20260906152521 22 0 1.6 6.4 0.00 0.00 0.00 60 1021.9
20260906152020 22 169 0.0 4.8 0.00 0.00 0.00 60 1021.9
20260906151549 22 272 0.0 6.4 0.00 0.00 0.00 62 1021.9
20260906151018 22 0 0.0 9.7 0.00 0.00 0.00 63 1021.9
20260906150524 22 213 1.6 9.7 0.00 0.00 0.00 63 1022.0
20260906150043 22 225 0.0 4.8 0.00 0.00 0.00 64 1021.9
20260906145521 21 0 1.6 6.4 0.00 0.00 0.00 65 1021.9
20260906145020 21 248 1.6 6.4 0.00 0.00 0.00 65 1021.8
20260906144542 21 239 0.0 6.4 0.00 0.00 0.00 67 1021.9
20260906144023 20 253 1.6 6.4 0.00 0.00 0.00 67 1021.9
20260906143521 20 206 1.6 6.4 0.00 0.00 0.00 68 1022.0
20260906143041 20 228 1.6 4.8 0.00 0.00 0.00 68 1021.9
20260906142519 20 220 1.6 4.8 0.00 0.00 0.00 69 1021.9
20260906142023 19 268 0.0 4.8 0.00 0.00 0.00 69 1021.8
20260906141541 19 0 0.0 4.8 0.00 0.00 0.00 70 1021.7
20260906141024 18 179 1.6 4.8 0.00 0.00 0.00 70 1021.9
20260906140519 18 209 1.6 6.4 0.00 0.00 0.00 70 1021.9
20260906140047 18 195 1.6 6.4 0.00 0.00 0.00 71 1021.9
20260906135525 18 0 0.0 3.2 0.00 0.00 0.00 72 1021.9
20260906135023 17 174 1.6 3.2 0.00 0.00 0.00 72 1021.9
20260906134553 17 0 0.0 3.2 0.00 0.00 0.00 74 1022.0
20260906134024 17 0 0.0 3.2 0.00 0.00 0.00 75 1021.9
20260906133521 17 0 0.0 3.2 0.00 0.00 0.00 75 1021.8
20260906133106 17 174 0.0 4.8 0.00 0.00 0.00 76 1021.6
20260906132518 16 0 0.0 6.4 0.00 0.00 0.00 76 1021.6
20260906132027 16 0 0.0 6.4 0.00 0.00 0.00 77 1021.7
20260906131541 16 184 1.6 4.8 0.00 0.00 0.00 78 1021.5
20260906131024 16 0 0.0 4.8 0.00 0.00 0.00 78 1021.5
20260906130525 16 184 0.0 3.2 0.00 0.00 0.00 79 1021.4
20260906130049 16 209 0.0 4.8 0.00 0.00 0.00 79 1021.4
20260906125523 16 0 0.0 4.8 0.00 0.00 0.00 79 1021.4
20260906125025 17 209 0.0 4.8 0.00 0.00 0.00 79 1021.4
20260906124543 17 0 0.0 3.2 0.00 0.00 0.00 78 1021.4
20260906124021 17 266 0.0 3.2 0.00 0.00 0.00 78 1021.4
20260906123520 17 0 0.0 3.2 0.00 0.00 0.00 77 1021.5
20260906123042 17 0 0.0 3.2 0.00 0.00 0.00 77 1021.4
20260906122518 17 0 0.0 1.6 0.00 0.00 0.00 77 1021.4
20260906122021 17 0 0.0 1.6 0.00 0.00 0.00 77 1021.4
20260906121548 17 0 0.0 1.6 0.00 0.00 0.00 76 1021.4
20260906121025 17 0 0.0 1.6 0.00 0.00 0.00 75 1021.3
20260906120524 17 0 0.0 4.8 0.00 0.00 0.00 75 1021.4
20260906120048 17 266 0.0 4.8 0.00 0.00 0.00 75 1021.4
20260906115526 17 0 0.0 1.6 0.00 0.00 0.00 74 1021.4
20260906115022 17 0 0.0 3.2 0.00 0.00 0.00 74 1021.3
20260906114548 17 251 0.0 4.8 0.00 0.00 0.00 74 1021.2
20260906114021 17 0 0.0 4.8 0.00 0.00 0.00 74 1021.3
20260906113519 17 0 0.0 6.4 0.00 0.00 0.00 74 1021.3
20260906113042 17 251 0.0 6.4 0.00 0.00 0.00 73 1021.3
20260906112520 17 0 0.0 4.8 0.00 0.00 0.00 73 1021.3
20260906112021 17 206 0.0 4.8 0.00 0.00 0.00 72 1021.1
20260906111543 17 0 0.0 4.8 0.00 0.00 0.00 72 1021.1
20260906111024 17 0 1.6 4.8 0.00 0.00 0.00 71 1021.0
20260906110524 17 210 1.6 4.8 0.00 0.00 0.00 71 1021.0
20260906110046 18 221 1.6 4.8 0.00 0.00 0.00 69 1021.0
20260906105524 18 195 1.6 4.8 0.00 0.00 0.00 68 1020.9
20260906105024 18 200 1.6 8.0 0.00 0.00 0.00 67 1020.8
20260906104551 18 167 1.6 8.0 0.00 0.00 0.00 66 1020.8
20260906104021 18 189 3.2 8.0 0.00 0.00 0.00 66 1020.8
20260906103521 18 0 1.6 8.0 0.00 0.00 0.00 65 1020.7
20260906103042 18 217 3.2 8.0 0.00 0.00 0.00 64 1020.7
20260906102518 18 248 0.0 4.8 0.00 0.00 0.00 61 1020.8
20260906102017 18 0 1.6 4.8 0.00 0.00 0.00 60 1020.7
20260906101547 18 219 0.0 4.8 0.00 0.00 0.00 59 1020.7
20260906101020 18 0 0.0 4.8 0.00 0.00 0.00 59 1020.7
20260906100520 18 0 0.0 4.8 0.00 0.00 0.00 58 1020.7
20260906100043 19 0 0.0 4.8 0.00 0.00 0.00 56 1020.8
20260906095521 19 204 1.6 4.8 0.00 0.00 0.00 56 1020.8
20260906095021 19 227 0.0 4.8 0.00 0.00 0.00 54 1020.8
20260906094540 19 192 0.0 4.8 0.00 0.00 0.00 54 1020.9
20260906094021 19 192 0.0 4.8 0.00 0.00 0.00 54 1020.9
20260906093523 19 192 0.0 3.2 0.00 0.00 0.00 53 1020.8
20260906093045 19 192 0.0 3.2 0.00 0.00 0.00 53 1020.7
20260906092520 19 0 0.0 3.2 0.00 0.00 0.00 53 1020.7
20260906092023 19 112 0.0 1.6 0.00 0.00 0.00 54 1020.7
20260906091541 20 0 0.0 3.2 0.00 0.00 0.00 55 1020.8
20260906091020 20 0 0.0 3.2 0.00 0.00 0.00 55 1020.6
20260906090525 20 0 0.0 3.2 0.00 0.00 0.00 54 1020.5
20260906090050 20 0 0.0 0.0 0.00 0.00 0.00 52 1020.5
20260906085522 20 0 0.0 0.0 0.00 0.00 0.00 52 1020.3
20260906085023 20 0 0.0 1.6 0.00 0.00 0.00 50 1020.3
20260906084542 20 0 0.0 1.6 0.00 0.00 0.00 50 1020.2
20260906084020 20 0 0.0 1.6 0.00 0.00 0.00 49 1020.3
20260906083521 21 0 0.0 1.6 0.00 0.00 0.00 49 1020.3
20260906083041 21 0 0.0 1.6 0.00 0.00 0.00 49 1020.2
20260906082521 21 0 0.0 1.6 0.00 0.00 0.00 49 1020.3
20260906082021 21 0 0.0 3.2 0.00 0.00 0.00 48 1020.3
20260906081541 21 0 0.0 3.2 0.00 0.00 0.00 48 1020.4
20260906081020 21 190 0.0 1.6 0.00 0.00 0.00 47 1020.3
20260906080524 21 0 0.0 1.6 0.00 0.00 0.00 47 1020.2
20260906080042 21 0 0.0 1.6 0.00 0.00 0.00 47 1020.3
20260906075523 21 0 0.0 1.6 0.00 0.00 0.00 47 1020.1
20260906075021 21 0 0.0 4.8 0.00 0.00 0.00 47 1020.1
20260906074542 21 0 0.0 4.8 0.00 0.00 0.00 47 1019.9
20260906074023 21 189 0.0 4.8 0.00 0.00 0.00 47 1019.8
20260906073521 21 0 0.0 6.4 0.00 0.00 0.00 48 1019.9
20260906073041 22 0 1.6 9.7 0.00 0.00 0.00 47 1019.9
20260906072520 22 0 1.6 9.7 0.00 0.00 0.00 47 1019.8
20260906072023 22 229 4.8 9.7 0.00 0.00 0.00 47 1019.7
20260906071542 22 213 3.2 9.7 0.00 0.00 0.00 47 1019.7
20260906071024 21 163 3.2 8.0 0.00 0.00 0.00 48 1019.8
20260906070521 22 235 1.6 8.0 0.00 0.00 0.00 50 1019.8
20260906070041 22 155 1.6 6.4 0.00 0.00 0.00 50 1019.8
20260906065523 22 191 1.6 6.4 0.00 0.00 0.00 51 1019.9
20260906065024 22 198 1.6 6.4 0.00 0.00 0.00 48 1019.9
20260906064542 22 0 0.0 8.0 0.00 0.00 0.00 48 1020.1
20260906064021 22 210 1.6 8.0 0.00 0.00 0.00 47 1020.1
20260906063521 22 189 1.6 8.0 0.00 0.00 0.00 45 1020.1
20260906063043 22 196 1.6 6.4 0.00 0.00 0.00 45 1020.2
20260906062522 23 194 1.6 4.8 0.00 0.00 0.00 44 1020.3
20260906062021 23 183 1.6 4.8 0.00 0.00 0.00 43 1020.3
20260906061541 23 0 0.0 3.2 0.00 0.00 0.00 42 1020.3
20260906061020 23 0 0.0 6.4 0.00 0.00 0.00 42 1020.3
20260906060523 23 0 0.0 6.4 0.00 0.00 0.00 41 1020.4
20260906060049 23 225 1.6 6.4 0.00 0.00 0.00 41 1020.4
20260906055523 23 126 1.6 6.4 0.00 0.00 0.00 40 1020.5
20260906055023 23 0 1.6 6.4 0.00 0.00 0.00 39 1020.4
20260906054547 23 166 0.0 3.2 0.00 0.00 0.00 38 1020.5
20260906054022 24 0 0.0 3.2 0.00 0.00 0.00 37 1020.5
20260906053520 24 131 0.0 3.2 0.00 0.00 0.00 37 1020.4
20260906053044 24 0 0.0 3.2 0.00 0.00 0.00 37 1020.4
20260906052523 24 0 0.0 3.2 0.00 0.00 0.00 38 1020.5
20260906052021 24 0 0.0 3.2 0.00 0.00 0.00 37 1020.6
20260906051541 24 0 0.0 3.2 0.00 0.00 0.00 37 1020.7
20260906051024 24 171 0.0 3.2 0.00 0.00 0.00 36 1020.8
20260906050520 24 0 0.0 4.8 0.00 0.00 0.00 36 1021.0
20260906050109 24 0 0.0 6.4 0.00 0.00 0.00 36 1021.1
20260906045523 24 177 1.6 6.4 0.00 0.00 0.00 37 1021.2
20260906045022 24 0 0.0 1.6 0.00 0.00 0.00 36 1021.2
20260906044542 23 0 0.0 3.2 0.00 0.00 0.00 36 1021.2
20260906044021 23 85 0.0 9.7 0.00 0.00 0.00 36 1021.1
20260906043518 23 85 1.6 9.7 0.00 0.00 0.00 36 1021.0
20260906043040 23 119 1.6 6.4 0.00 0.00 0.00 37 1021.0
20260906042519 23 83 1.6 4.8 0.00 0.00 0.00 37 1020.7
20260906042020 23 73 0.0 4.8 0.00 0.00 0.00 37 1020.5
20260906041546 23 0 0.0 1.6 0.00 0.00 0.00 36 1020.1
20260906041024 23 0 0.0 3.2 0.00 0.00 0.00 37 1019.9
20260906040524 23 0 0.0 3.2 0.00 0.00 0.00 38 1019.8
20260906040045 23 0 0.0 3.2 0.00 0.00 0.00 39 1019.8
20260906035522 23 213 0.0 3.2 0.00 0.00 0.00 38 1019.8
20260906035021 23 0 0.0 3.2 0.00 0.00 0.00 37 1019.7
20260906034545 23 0 0.0 1.6 0.00 0.00 0.00 37 1019.6
20260906034018 23 0 0.0 1.6 0.00 0.00 0.00 38 1019.6
20260906033520 24 0 0.0 3.2 0.00 0.00 0.00 37 1019.6
20260906033052 24 0 0.0 3.2 0.00 0.00 0.00 36 1019.6
20260906032520 25 213 1.6 3.2 0.00 0.00 0.00 35 1019.6
20260906032025 25 213 0.0 3.2 0.00 0.00 0.00 33 1019.6
20260906031545 25 0 0.0 1.6 0.00 0.00 0.00 33 1019.6
20260906031027 25 0 0.0 1.6 0.00 0.00 0.00 32 1019.5
20260906030523 25 0 0.0 1.6 0.00 0.00 0.00 32 1019.4
20260906030052 26 0 0.0 1.6 0.00 0.00 0.00 32 1019.2
20260906025521 26 0 0.0 0.0 0.00 0.00 0.00 31 1018.9
20260906025021 26 0 0.0 1.6 0.00 0.00 0.00 30 1018.8
20260906024544 26 0 0.0 1.6 0.00 0.00 0.00 30 1018.6
20260906024020 26 0 0.0 1.6 0.00 0.00 0.00 30 1018.5
20260906023528 26 0 0.0 1.6 0.00 0.00 0.00 30 1018.5
20260906023048 26 0 0.0 3.2 0.00 0.00 0.00 30 1018.6
20260906022521 26 0 0.0 3.2 0.00 0.00 0.00 30 1018.7
20260906022020 27 0 0.0 3.2 0.00 0.00 0.00 29 1018.7
20260906021548 27 0 0.0 3.2 0.00 0.00 0.00 29 1018.6
20260906021024 27 0 0.0 4.8 0.00 0.00 0.00 29 1018.5
20260906020521 27 212 0.0 4.8 0.00 0.00 0.00 29 1018.5
20260906020050 27 205 1.6 4.8 0.00 0.00 0.00 29 1018.4
20260906015524 27 177 1.6 6.4 0.00 0.00 0.00 28 1018.4
20260906015025 27 190 0.0 6.4 0.00 0.00 0.00 28 1018.3
20260906014554 28 236 1.6 8.0 0.00 0.00 0.00 27 1018.2
20260906014024 28 209 3.2 8.0 0.00 0.00 0.00 26 1018.1
20260906013522 28 227 3.2 8.0 0.00 0.00 0.00 26 1018.1
20260906013043 28 233 3.2 9.7 0.00 0.00 0.00 25 1018.0
20260906012521 28 203 3.2 11.3 0.00 0.00 0.00 25 1018.1
20260906012021 29 205 3.2 11.3 0.00 0.00 0.00 24 1018.0
20260906011542 30 177 3.2 12.9 0.00 0.00 0.00 23 1018.1
20260906011021 30 238 4.8 12.9 0.00 0.00 0.00 23 1018.0
20260906010521 30 240 3.2 12.9 0.00 0.00 0.00 22 1018.0
20260906010042 30 261 1.6 6.4 0.00 0.00 0.00 22 1017.9
20260906005522 31 196 1.6 6.4 0.00 0.00 0.00 22 1017.9
20260906005020 31 285 1.6 8.0 0.00 0.00 0.00 21 1018.0
20260906004543 31 246 1.6 9.7 0.00 0.00 0.00 21 1017.9
20260906004027 31 202 3.2 9.7 0.00 0.00 0.00 20 1017.8
20260906003524 32 188 1.6 6.4 0.00 0.00 0.00 20 1017.9
20260906003043 32 223 0.0 4.8 0.00 0.00 0.00 20 1017.9
20260906002521 32 261 0.0 4.8 0.00 0.00 0.00 19 1017.9
20260906002021 33 0 0.0 3.2 0.00 0.00 0.00 19 1017.9
20260906001542 33 235 0.0 6.4 0.00 0.00 0.00 18 1017.9
20260906001020 34 0 0.0 6.4 0.00 0.00 0.00 18 1017.8
20260906000520 35 234 1.6 4.8 0.00 0.00 0.00 17 1017.8
20260906000042 35 178 0.0 4.8 0.00 0.00 0.00 18 1017.7
20260905235526 35 0 0.0 4.8 0.00 0.00 0.00 16 1017.7
20260905235027 35 116 0.0 4.8 0.00 0.00 0.00 17 1017.7
20260905234540 36 130 0.0 3.2 0.00 0.00 0.00 18 1017.6
20260905234021 35 48 0.0 3.2 0.00 0.00 0.00 17 1017.7
20260905233524 36 154 0.0 4.8 0.00 0.00 0.00 16 1017.7
20260905233044 36 153 1.6 4.8 0.00 0.00 0.00 16 1017.7
20260905232524 36 157 0.0 6.4 0.00 0.00 0.00 17 1017.6
20260905232018 35 104 1.6 6.4 0.00 0.00 0.00 18 1017.7
20260905231554 35 131 0.0 4.8 0.00 0.00 0.00 18 1017.6
20260905231027 34 84 1.6 6.4 0.00 0.00 0.00 18 1017.7
20260905230525 33 352 0.0 6.4 0.00 0.00 0.00 18 1017.7
20260905230100 33 109 0.0 6.4 0.00 0.00 0.00 19 1017.7
20260905225526 33 343 1.6 3.2 0.00 0.00 0.00 20 1017.6
20260905225022 33 0 0.0 3.2 0.00 0.00 0.00 21 1017.6
20260905224542 33 0 0.0 3.2 0.00 0.00 0.00 19 1017.6
20260905224024 33 0 0.0 3.2 0.00 0.00 0.00 21 1017.6
20260905223521 33 0 0.0 4.8 0.00 0.00 0.00 21 1017.7
20260905223042 33 43 0.0 6.4 0.00 0.00 0.00 19 1017.7
20260905222521 33 44 1.6 6.4 0.00 0.00 0.00 18 1017.7
20260905222023 33 12 1.6 6.4 0.00 0.00 0.00 18 1017.7